Location: Cutler
(25.6150°N, 80.3110°W)
Time: 22:11:02
(UTC-04:00)

Vanguard 2 - All Passes

Search period start: 18 July 2018 00:00
Search period end: 28 July 2018 00:00
Orbit: 553 x 2939 km, 32.9° (Epoch: 18 July)

Date Brightness Start Highest point End Pass type
(mag) Time Alt. Az. Time Alt. Az. Time Alt. Az.
18 Jul - 01:01:42 10° WNW 01:19:26 89° NNE 01:31:25 10° ESE visible
18 Jul - 03:16:35 10° WNW 03:30:01 41° SW 03:38:45 10° SSE visible
18 Jul - 16:35:39 10° SSW 16:45:01 33° SE 16:58:15 10° E daylight
18 Jul - 18:42:22 10° WSW 18:55:31 79° SSE 19:13:34 10° ENE daylight
18 Jul - 20:53:05 10° W 21:09:19 71° N 21:26:57 10° ENE visible
18 Jul - 23:06:17 10° WNW 23:24:23 71° N 23:39:22 10° E visible
19 Jul - 01:20:16 10° WNW 01:37:45 79° SSW 01:49:28 10° ESE visible
19 Jul - 03:35:52 10° W 03:47:37 30° SW 03:55:45 10° SSE visible
19 Jul - 16:52:41 10° SSW 17:02:40 44° SE 17:17:28 10° ENE daylight
19 Jul - 19:00:28 10° WSW 19:13:53 89° NNW 19:32:07 10° ENE daylight
19 Jul - 21:11:44 10° W 21:28:11 68° N 21:45:36 10° ENE visible
19 Jul - 23:24:55 10° WNW 23:43:09 76° NNE 23:57:53 10° E visible
20 Jul - 01:38:53 10° WNW 01:55:52 66° SSW 02:07:19 10° SE visible
20 Jul - 03:55:47 10° W 04:05:08 21° SW 04:12:09 10° S visible
20 Jul - 15:07:00 10° SSE 15:11:53 15° SE 15:17:50 10° E daylight
20 Jul - 17:10:05 10° SW 17:20:28 57° SE 17:36:22 10° ENE daylight
20 Jul - 19:18:44 10° WSW 19:32:25 80° NNW 19:50:41 10° ENE daylight
20 Jul - 21:30:23 10° W 21:47:05 67° N 22:04:17 10° E visible
20 Jul - 23:43:29 10° WNW 00:01:48 83° NNE 00:16:16 10° ESE visible
21 Jul - 01:57:37 10° WNW 02:13:49 53° SW 02:24:54 10° SE visible
21 Jul - 04:17:11 10° WSW 04:22:38 13° SW 04:27:15 10° SSW night (unlit)
21 Jul - 15:22:36 10° S 15:29:22 23° SE 15:38:40 10° E daylight
21 Jul - 17:27:46 10° SW 17:38:27 71° SSE 17:55:03 10° ENE daylight
21 Jul - 19:37:09 10° W 19:51:06 73° NNW 20:09:19 10° ENE daylight
21 Jul - 21:49:01 10° WNW 22:05:59 69° N 22:23:00 10° E visible
22 Jul - 00:02:01 10° WNW 00:20:17 87° SSW 00:34:29 10° ESE visible
22 Jul - 02:16:36 10° WNW 02:31:35 41° SW 02:42:11 10° SSE visible
22 Jul - 15:39:12 10° SSW 15:46:52 33° SE 15:58:20 10° E daylight
22 Jul - 17:45:41 10° WSW 17:56:38 84° SSE 18:13:40 10° ENE daylight
22 Jul - 19:55:39 10° W 20:09:54 69° N 20:28:02 10° ENE daylight
22 Jul - 22:07:35 10° WNW 22:24:50 73° NNE 22:41:40 10° E visible
23 Jul - 00:20:32 10° WNW 00:38:36 75° SSW 00:52:31 10° SE visible
23 Jul - 02:35:58 10° W 02:49:14 31° SW 02:59:04 10° S visible
23 Jul - 15:56:20 10° SSW 16:04:29 45° SE 16:17:27 10° ENE daylight
23 Jul - 18:03:47 10° WSW 18:15:00 84° NNW 18:32:16 10° ENE daylight
23 Jul - 20:14:11 10° W 20:28:45 67° N 20:46:48 10° E visible
23 Jul - 22:26:05 10° WNW 22:43:34 79° NNE 23:00:13 10° ESE visible
24 Jul - 00:39:07 10° WNW 00:56:44 63° SW 01:10:18 10° SE visible
24 Jul - 02:56:03 10° W 03:06:50 22° SW 03:15:21 10° S visible
24 Jul - 14:10:58 10° SSE 14:14:22 13° SE 14:18:26 10° ESE daylight
24 Jul - 16:13:48 10° SW 16:22:17 59° SE 16:36:17 10° ENE daylight
24 Jul - 18:22:03 10° W 18:33:32 75° NNW 18:50:54 10° ENE daylight
24 Jul - 20:32:43 10° WNW 20:47:36 67° N 21:05:38 10° E visible
24 Jul - 22:44:32 10° WNW 23:02:11 87° NNE 23:18:38 10° ESE visible
25 Jul - 00:57:52 10° WNW 01:14:42 51° SW 01:27:49 10° SSE visible
25 Jul - 03:17:38 10° WSW 03:24:28 14° SW 03:30:22 10° SSW visible
25 Jul - 14:26:29 10° S 14:31:49 21° SE 14:39:12 10° E daylight
25 Jul - 16:31:34 10° SW 16:40:16 75° SSE 16:54:56 10° ENE daylight
25 Jul - 18:40:26 10° W 18:52:12 69° N 19:09:38 10° ENE daylight
25 Jul - 20:51:12 10° WNW 21:06:27 70° N 21:24:27 10° E visible
25 Jul - 23:02:58 10° WNW 23:20:38 82° SSW 23:36:51 10° ESE visible
26 Jul - 01:16:53 10° WNW 01:32:33 40° SW 01:44:59 10° SSE visible
26 Jul - 14:43:10 10° SSW 14:49:20 32° SE 14:58:43 10° E daylight
26 Jul - 16:49:32 10° WSW 16:58:27 89° SSE 17:13:32 10° ENE daylight
26 Jul - 18:58:52 10° W 19:10:56 66° N 19:28:28 10° ENE daylight
26 Jul - 21:09:37 10° WNW 21:25:12 75° NNE 21:43:12 10° E visible
26 Jul - 23:21:25 10° WNW 23:38:56 71° SSW 23:54:50 10° SE visible
27 Jul - 01:36:21 10° W 01:50:19 30° SW 02:01:44 10° S visible
27 Jul - 15:00:24 10° SSW 15:06:58 45° SE 15:17:42 10° ENE daylight
27 Jul - 17:07:41 10° WSW 17:16:50 78° NNW 17:32:09 10° ENE daylight
27 Jul - 19:17:17 10° W 19:29:43 65° N 19:47:23 10° E daylight
27 Jul - 21:27:59 10° WNW 21:43:52 82° NNE 22:01:48 10° ESE visible
